Hourly Data Report for July 13, 2021

BORDEN AWOS
ONTARIO
Current Station Operator: DND

44°16'20.000" N
79°54'42.000" W
222.50 m
611B002
71534
YBN

Download Data

Hourly Data (July 2021)
Hourly Data Report for July 13, 2021
TIME
LST
Temp Definition
°C
Dew Point Definition
°C
Rel Hum Definition
%
Precip. Amount Definition
mm

Wind Dir Definition
10's deg

Wind Spd Definition
km/h
Visibility Definition
km
Stn Press Definition
kPa
Hmdx Definition


Wind Chill Definition


Weather Definition


00:00 19.1 17.5 90   13 7 14.5 99.32     LegendNANA
01:00 18.2 17.2 94   14 4 14.5 99.31     LegendNANA
02:00 19.1 17.7 92     0 14.5 99.27     LegendNANA
03:00 19.1 17.9 93   13 4 14.5 99.25     LegendNANA
04:00 19.2 17.9 92   12 6 14.5 99.25     LegendNANA
05:00 19.4 18.1 92   17 4 14.5 99.30     LegendNANA
06:00 19.6 18.5 93   16 6 14.5 99.30     LegendNANA
07:00 20.2 18.9 92   13 6 14.5 99.27 27   LegendNANA
08:00 21.6 19.6 88   14 9 14.5 99.24 29   LegendNANA
09:00 21.7 20.3 92   14 11 12.9 99.20 30   LegendNANA
10:00 23.1 20.3 84   15 19 14.5 99.20 31   LegendNANA
11:00 24.9 20.4 76   17 20 14.5 99.15 33   LegendNANA
12:00 25.0 21.2 80   14 17 14.5 99.07 34   LegendNANA
13:00 26.3 22.0 77   17 24 14.5 98.98 36   LegendNANA
14:00 23.9 21.9 89   16 17 14.5 98.95 33   Rain
15:00 21.0 20.4 96   20 4 0.8 98.98 29   Heavy Rain
16:00 23.3 21.8 91   12 7 14.5 98.91 32   LegendNANA
17:00 24.3 22.0 87   15 15 14.5 98.88 34   LegendNANA
18:00 22.3 20.6 90   24 6 14.5 98.84 30   LegendNANA
19:00 20.8 19.6 93   26 9 3.1 98.87 28   Moderate Rain
20:00 20.4 19.8 96   19 7 14.5 98.83 28   Rain
21:00 20.1 18.9 93   22 13 14.5 98.84 27   LegendNANA
22:00 19.0 18.0 94   29 4 14.5 98.84     LegendNANA
23:00 19.0 18.0 94   20 7 14.5 98.90     LegendNANA

Notes on Data Quality.

Legend

  • E = Estimated
  • M = Missing
  • NA = Not Available*
  • [empty] = Indicates an unobserved value
Date modified: